Voltar ao catálogo

CZ-3C DEB

AtivoGTO
NORAD 39348·DEBRIS·🇨🇳 China

Lançado Oct 31, 2010 de Xichang Satellite Launch Center

Loading…

TLE

EnvelhecendoSource: Space-Track

Época: Sep 14, 2026, 09:27 UTC

1 39348U 10057N   26257.39403556 -.00000075  00000-0  35665-3 0  9998
2 39348  20.5048 294.0703 7216839  94.8568 342.9874  2.26182991106418

Acompanhe CZ-3C DEB em tempo real com AllMySat

Download on the App Store